N6DBF Weather Reports


time (UTC)temp
C
wind
direction
speed
KPH
gust
KPH
rain 1hr
cm
rain 24hr
cm
rain mn
cm
humidity
%
barometer
mb
20260506062511 15 278 1.6 6.4 0.00 0.51 0.36 57 1013.7
20260506062013 15 278 1.6 14.5 0.00 0.51 0.36 57 1013.8
20260506061538 16 277 1.6 14.5 0.00 0.56 0.30 57 1019.6
20260506061534 15 278 1.6 14.5 0.00 0.51 0.36 56 1013.7
20260506061014 15 278 4.8 14.5 0.00 0.51 0.36 56 1013.6
20260506060514 15 277 3.2 11.3 0.00 0.51 0.36 56 1013.7
20260506051008 16 277 4.8 14.5 0.00 0.61 0.36 52 1013.4
20260506050509 16 277 6.4 14.5 0.00 0.61 0.36 51 1013.4
20260506045007 17 297 3.2 11.3 0.00 0.71 0.36 52 1013.2
20260506044544 17 297 3.2 9.7 0.00 0.69 0.30 52 1019.1
20260506044542 17 297 3.2 11.3 0.00 0.71 0.36 52 1013.1
20260506044007 17 300 1.6 6.4 0.00 0.71 0.36 52 1013.1
20260506043515 17 300 1.6 6.4 0.00 0.71 0.36 51 1013.1
20260506043033 17 300 1.6 8.0 0.00 0.69 0.30 52 1019.0
20260506042508 17 300 1.6 8.0 0.00 0.71 0.36 51 1013.0
20260506042012 17 300 3.2 11.3 0.00 0.71 0.36 51 1013.0
20260506041533 17 300 3.2 9.7 0.00 0.71 0.30 51 1018.8
20260506041530 17 300 3.2 11.3 0.00 0.71 0.36 51 1012.8
20260506041009 17 304 3.2 11.3 0.00 0.71 0.36 51 1012.7
20260506040511 17 308 4.8 11.3 0.00 0.71 0.36 50 1012.6
20260506040031 17 281 3.2 11.3 0.00 0.71 0.30 50 1018.6
20260506040029 17 280 3.2 11.3 0.00 0.71 0.36 50 1012.5
20260506035510 17 283 3.2 9.7 0.00 0.71 0.36 49 1012.3
20260506035009 17 286 3.2 11.3 0.00 0.71 0.36 49 1012.3
20260506034531 18 286 3.2 14.5 0.00 0.71 0.30 49 1018.4
20260506034009 18 288 4.8 24.1 0.00 0.71 0.36 47 1012.1
20260506033511 18 273 8.0 24.1 0.00 0.71 0.36 47 1012.1
20260506033030 18 304 8.0 24.1 0.00 0.71 0.30 47 1018.2
20260506033028 18 276 6.4 22.5 0.00 0.71 0.36 46 1012.1
20260506032507 18 274 6.4 22.5 0.00 0.71 0.36 46 1011.9
20260506032014 18 283 8.0 22.5 0.00 0.71 0.36 46 1011.8
20260506031534 18 283 8.0 20.9 0.00 0.71 0.30 46 1017.8
20260506031531 18 284 9.7 20.9 0.00 0.71 0.36 46 1011.7
20260506031013 18 276 8.0 19.3 0.00 0.71 0.36 45 1011.5
20260506030509 18 255 8.0 19.3 0.00 0.71 0.36 44 1011.4
20260506030029 18 252 6.4 19.3 0.00 0.71 0.36 42 1011.3
20260506025511 18 263 4.8 17.7 0.00 0.76 0.36 38 1011.2
20260506025013 18 300 4.8 17.7 0.00 0.76 0.36 37 1011.2
20260506024534 19 263 6.4 24.1 0.00 0.71 0.30 38 1017.4
20260506024010 19 272 6.4 25.7 0.00 0.76 0.36 36 1011.0
20260506023512 19 264 9.7 24.1 0.00 0.76 0.36 36 1011.0
20260506023030 19 269 11.3 24.1 0.00 0.76 0.36 35 1010.9
20260506023028 19 292 12.9 24.1 0.00 0.71 0.30 36 1017.1
20260506022512 19 308 8.0 24.1 0.00 0.76 0.36 34 1010.8
20260506022011 19 275 8.0 25.7 0.00 0.76 0.36 33 1010.7
20260506021528 20 249 11.3 25.7 0.00 0.76 0.36 33 1010.7
20260506021010 20 274 6.4 22.5 0.00 0.76 0.36 33 1010.6
20260506020508 20 296 9.7 20.9 0.00 0.76 0.36 33 1010.5
20260506020030 20 285 11.3 24.1 0.00 0.76 0.36 33 1010.5
20260506020027 20 281 12.9 20.9 0.00 0.84 0.30 33 1016.6
20260506015511 20 281 11.3 24.1 0.00 0.84 0.36 32 1010.5
20260506015011 20 278 9.7 27.4 0.00 0.84 0.36 31 1010.4
20260506014530 20 265 9.7 27.4 0.00 0.84 0.36 31 1010.4
20260506014527 20 250 8.0 27.4 0.00 0.84 0.30 32 1016.6
20260506014009 20 265 16.1 27.4 0.00 0.84 0.36 32 1010.4
20260506013510 20 286 12.9 27.4 0.00 0.84 0.36 32 1010.3
20260506013027 21 298 17.7 27.4 0.00 0.84 0.30 33 1016.6
20260506012510 21 268 9.7 33.8 0.00 0.84 0.36 33 1010.4
20260506012013 21 279 12.9 33.8 0.00 0.84 0.36 33 1010.3
20260506011528 21 267 14.5 33.8 0.00 0.84 0.36 32 1010.3
20260506011011 21 303 11.3 32.2 0.00 0.84 0.36 32 1010.2
20260506010508 21 345 14.5 30.6 0.00 0.84 0.36 32 1010.3
20260506010034 21 291 11.3 24.1 0.00 0.84 0.36 32 1010.3
20260506010025 21 276 12.9 30.6 0.00 0.86 0.30 32 1016.5
20260506005509 22 275 14.5 24.1 0.00 0.86 0.36 31 1010.3
20260506005012 22 276 8.0 27.4 0.00 0.86 0.36 32 1010.1
20260506004541 22 267 8.0 27.4 0.00 0.86 0.36 30 1010.0
20260506004523 22 296 9.7 27.4 0.00 0.86 0.30 31 1016.2
20260506004010 22 291 9.7 22.5 0.00 0.86 0.36 31 1010.0
20260506003513 22 274 11.3 22.5 0.00 0.86 0.36 30 1010.0
20260506003032 22 276 8.0 22.5 0.00 0.86 0.36 30 1009.9
20260506003023 22 275 9.7 22.5 0.00 0.86 0.30 31 1016.1
20260506002510 22 207 6.4 19.3 0.00 0.86 0.36 29 1010.0
20260506002018 23 234 9.7 22.5 0.00 0.86 0.36 27 1009.9
20260506001530 23 226 8.0 24.1 0.00 0.86 0.36 28 1009.9
20260506001522 23 228 8.0 22.5 0.00 0.86 0.30 28 1016.0
20260506001008 23 207 11.3 24.1 0.00 0.86 0.36 27 1009.9
20260506000511 24 222 11.3 22.5 0.00 0.86 0.36 26 1009.8
20260506000029 24 227 8.0 19.3 0.00 0.86 0.36 26 1009.8
20260506000021 24 228 9.7 19.3 0.00 0.86 0.30 26 1015.9
20260505235509 25 227 9.7 20.9 0.00 0.86 0.36 25 1009.7
20260505235012 24 227 6.4 20.9 0.00 0.86 0.36 26 1009.7
20260505234602 24 257 6.4 22.5 0.00 0.86 0.36 26 1009.6
20260505234546 25 286 8.0 19.3 0.00 0.86 0.30 26 1015.7
20260505234011 24 215 8.0 22.5 0.00 0.86 0.36 25 1009.5
20260505233509 24 244 9.7 20.9 0.00 0.86 0.36 26 1009.6
20260505233032 24 223 8.0 24.1 0.00 0.86 0.36 27 1009.5
20260505233021 24 217 8.0 20.9 0.00 0.86 0.30 27 1015.6
20260505232509 24 234 9.7 25.7 0.00 0.86 0.36 26 1009.5
20260505232012 24 220 8.0 27.4 0.00 0.86 0.36 26 1009.5
20260505231535 25 213 9.7 27.4 0.00 0.86 0.36 26 1009.5
20260505231520 25 211 9.7 27.4 0.00 0.86 0.30 27 1015.6
20260505231009 25 218 11.3 25.7 0.00 0.86 0.36 26 1009.4
20260505230513 25 267 4.8 24.1 0.00 0.86 0.36 27 1009.4
20260505230032 25 280 9.7 25.7 0.00 0.86 0.36 28 1009.6
20260505230018 25 279 8.0 24.1 0.00 0.86 0.30 28 1015.6
20260505225512 25 205 11.3 25.7 0.00 0.86 0.36 27 1009.6
20260505225011 25 237 8.0 20.9 0.00 0.86 0.36 27 1009.6
20260505224534 24 257 9.7 20.9 0.00 0.86 0.36 27 1009.6
20260505224525 25 293 11.3 19.3 0.00 0.86 0.30 28 1015.7
20260505224014 24 207 8.0 22.5 0.00 0.86 0.36 28 1009.6
20260505223518 24 221 11.3 22.5 0.00 0.86 0.36 28 1009.9
20260505223031 23 197 8.0 20.9 0.00 0.86 0.36 31 1009.7
20260505223014 23 263 8.0 19.3 0.00 0.86 0.30 31 1015.8
20260505222511 23 269 6.4 17.7 0.00 0.86 0.36 30 1009.7
20260505222015 23 209 6.4 24.1 0.00 0.86 0.36 32 1009.8
20260505221532 22 198 8.0 24.1 0.00 0.86 0.36 31 1009.9
20260505221514 22 200 8.0 22.5 0.00 0.86 0.30 32 1016.0
20260505221007 22 215 11.3 24.1 0.00 0.86 0.36 30 1009.9
20260505220511 22 210 9.7 19.3 0.00 0.86 0.36 30 1009.9
20260505220029 23 197 9.7 19.3 0.00 0.86 0.36 30 1009.9
20260505220013 23 199 9.7 19.3 0.00 0.86 0.30 31 1016.1
20260505215508 23 228 8.0 19.3 0.00 0.86 0.36 31 1010.0
20260505215010 23 195 6.4 29.0 0.00 0.86 0.36 31 1010.1
20260505214538 23 221 11.3 29.0 0.00 0.86 0.36 31 1010.2
20260505214516 23 221 12.9 29.0 0.00 0.86 0.30 31 1016.4
20260505214032 23 282 11.3 29.0 0.00 0.86 0.36 31 1010.1
20260505213512 23 208 9.7 29.0 0.00 0.86 0.36 30 1010.2
20260505213029 24 230 12.9 29.0 0.00 0.86 0.36 30 1010.3
20260505213013 24 230 12.9 29.0 0.00 0.86 0.30 31 1016.5
20260505212509 24 227 9.7 29.0 0.00 0.86 0.36 30 1010.4
20260505212012 24 193 9.7 29.0 0.00 0.86 0.36 29 1010.3
20260505211530 24 242 14.5 29.0 0.00 0.86 0.36 30 1010.4
20260505211511 24 242 14.5 27.4 0.00 0.86 0.30 31 1016.6
20260505211012 23 259 8.0 22.5 0.00 0.86 0.36 32 1010.4
20260505210517 23 188 11.3 25.7 0.00 0.86 0.36 31 1010.6
20260505210031 23 213 11.3 33.8 0.00 0.86 0.36 31 1010.7
20260505210013 23 216 11.3 33.8 0.00 0.86 0.30 31 1016.8
20260505205512 23 189 17.7 35.4 0.00 0.86 0.36 30 1010.6
20260505205016 23 192 14.5 35.4 0.00 0.86 0.36 31 1010.8
20260505204530 23 210 12.9 29.0 0.00 0.86 0.36 31 1010.7
20260505204508 23 209 14.5 25.7 0.00 0.86 0.30 31 1016.8
20260505204009 23 202 14.5 30.6 0.00 0.86 0.36 29 1010.8
20260505203510 24 188 12.9 30.6 0.00 0.86 0.36 32 1010.8
20260505203029 23 202 11.3 33.8 0.00 0.86 0.36 32 1010.6
20260505203006 23 202 12.9 29.0 0.00 0.86 0.30 32 1016.7
20260505202510 23 202 12.9 33.8 0.00 0.86 0.36 32 1010.8
20260505202015 23 184 12.9 33.8 0.00 0.86 0.36 33 1010.9
20260505201532 23 166 17.7 35.4 0.00 0.86 0.36 32 1011.0
20260505201505 23 173 16.1 33.8 0.00 0.86 0.30 32 1016.9
20260505201011 23 201 17.7 35.4 0.00 0.86 0.36 31 1010.9
20260505200510 23 219 11.3 35.4 0.00 0.86 0.36 33 1011.0
20260505200034 23 184 17.7 35.4 0.00 0.86 0.36 31 1011.1
20260505200007 23 232 19.3 35.4 0.00 0.86 0.30 32 1017.0
20260505195509 23 213 16.1 33.8 0.00 0.86 0.36 34 1011.0
20260505195011 23 188 14.5 35.4 0.00 0.86 0.36 35 1011.2
20260505194529 23 208 17.7 35.4 0.00 0.86 0.36 35 1011.3
20260505194501 23 215 17.7 33.8 0.00 0.86 0.30 35 1017.1
20260505194009 23 215 16.1 33.8 0.00 0.86 0.36 35 1011.2
20260505193511 22 252 17.7 33.8 0.00 0.86 0.36 37 1011.2
20260505193059 22 197 14.5 29.0 0.00 0.86 0.30 37 1017.1
20260505193032 22 222 16.1 32.2 0.00 0.86 0.36 36 1011.2
20260505192515 22 196 16.1 35.4 0.00 0.86 0.36 38 1011.3
20260505192013 22 210 14.5 33.8 0.00 0.86 0.36 40 1011.3
20260505191557 22 232 12.9 29.0 0.00 0.86 0.30 43 1017.1
20260505191532 22 197 14.5 29.0 0.00 0.86 0.36 42 1011.3
20260505191015 22 215 12.9 27.4 0.00 0.86 0.36 43 1011.4
20260505190510 22 242 16.1 25.7 0.00 0.86 0.36 44 1011.4
20260505190100 22 264 9.7 22.5 0.00 0.86 0.30 46 1017.1
20260505190031 22 201 11.3 24.1 0.00 0.86 0.36 46 1011.3
20260505185510 22 218 9.7 32.2 0.00 0.86 0.36 46 1011.4
20260505185014 22 229 14.5 32.2 0.00 0.86 0.36 46 1011.4
20260505184552 22 207 14.5 25.7 0.00 0.86 0.30 47 1017.3
20260505184529 22 200 16.1 27.4 0.00 0.86 0.36 47 1011.6
20260505184009 22 246 8.0 25.7 0.00 0.86 0.36 48 1011.5
20260505183511 22 224 12.9 24.1 0.00 0.86 0.36 49 1011.5
20260505183051 21 204 11.3 22.5 0.00 0.86 0.30 50 1017.5
20260505183041 21 202 11.3 24.1 0.00 0.86 0.36 48 1011.6
20260505182510 21 256 8.0 22.5 0.00 0.86 0.36 54 1011.7
20260505182017 21 268 6.4 17.7 0.00 0.86 0.36 53 1011.8
20260505181544 21 270 6.4 14.5 0.00 0.86 0.30 55 1017.6
20260505181533 21 271 4.8 12.9 0.00 0.86 0.36 54 1011.7
20260505181012 20 271 6.4 14.5 0.00 0.86 0.36 56 1011.8
20260505180514 20 273 4.8 16.1 0.00 0.86 0.36 53 1011.8
20260505180041 20 272 6.4 16.1 0.00 0.86 0.30 55 1017.7
20260505180031 20 271 6.4 16.1 0.00 0.86 0.36 56 1012.0
20260505175512 20 272 9.7 16.1 0.00 0.86 0.36 57 1012.2
20260505175008 20 276 6.4 14.5 0.00 0.86 0.36 57 1012.1
20260505174537 20 279 6.4 14.5 0.00 0.86 0.30 59 1017.9
20260505174529 19 279 4.8 14.5 0.00 0.86 0.36 58 1012.2
20260505174009 19 280 4.8 12.9 0.00 0.86 0.36 59 1012.2
20260505173509 19 282 4.8 11.3 0.00 0.86 0.36 58 1012.3
20260505173042 19 283 3.2 14.5 0.00 0.86 0.30 61 1018.1
20260505173038 19 283 3.2 14.5 0.00 0.86 0.36 60 1012.3
20260505172509 19 284 4.8 14.5 0.00 0.86 0.36 60 1012.3
20260505172015 18 283 0.0 14.5 0.00 0.86 0.36 60 1012.2
20260505171534 18 283 1.6 14.5 0.00 0.86 0.30 60 1018.0
20260505171010 18 286 1.6 14.5 0.00 0.86 0.36 60 1012.3
20260505170513 18 287 4.8 14.5 0.00 0.86 0.36 60 1012.2
20260505170035 18 287 3.2 14.5 0.00 0.86 0.30 61 1017.9
20260505165510 18 287 4.8 14.5 0.00 0.86 0.36 62 1012.3
20260505165011 18 288 1.6 16.1 0.00 0.86 0.36 62 1012.1
20260505164530 18 288 8.0 16.1 0.00 0.86 0.36 61 1012.1
20260505164009 18 71 3.2 12.9 0.00 0.86 0.36 65 1012.2
20260505163511 17 69 1.6 12.9 0.00 0.86 0.36 65 1012.1
20260505163031 17 69 3.2 12.9 0.00 0.86 0.36 67 1012.1
20260505163023 17 69 4.8 12.9 0.00 0.86 0.30 68 1017.6
20260505162509 17 89 0.0 6.4 0.00 0.86 0.36 68 1012.1
20260505162012 17 89 1.6 12.9 0.00 0.86 0.36 69 1012.2
20260505161529 16 0 3.2 12.9 0.00 0.86 0.36 71 1012.1
20260505161525 16 90 1.6 12.9 0.00 0.86 0.30 72 1017.8
20260505161011 16 0 1.6 11.3 0.00 0.86 0.36 71 1012.2
20260505160509 16 0 1.6 11.3 0.00 0.86 0.36 72 1012.2
20260505153035 16 90 1.6 6.4 0.00 0.86 0.36 76 1012.1
20260505153012 16 90 1.6 6.4 0.00 0.86 0.30 77 1017.6
20260505152511 16 90 1.6 9.7 0.00 0.86 0.36 77 1012.0
20260505152012 16 90 3.2 11.3 0.00 0.86 0.36 79 1012.0
20260505151529 15 92 4.8 11.3 0.00 0.86 0.36 80 1012.0
20260505151510 15 92 6.4 11.3 0.00 0.86 0.30 80 1017.5
20260505151009 15 0 1.6 9.7 0.00 0.86 0.36 81 1012.1
20260505150511 15 87 3.2 9.7 0.00 0.86 0.36 83 1012.2
20260505140517 14 89 3.2 9.7 0.00 0.86 0.36 90 1011.9
20260505125012 13 0 1.6 3.2 0.00 0.86 0.36 90 1010.9
20260505124548 13 89 0.0 3.2 0.00 0.86 0.30 90 1016.4
20260505124530 13 0 0.0 3.2 0.00 0.86 0.36 90 1011.0
20260505124013 13 0 0.0 3.2 0.00 0.86 0.36 90 1010.8
20260505123515 13 0 0.0 4.8 0.03 0.86 0.36 90 1010.8
20260505123043 13 89 0.0 4.8 0.03 0.86 0.30 91 1016.2
20260505123030 13 0 1.6 4.8 0.03 0.86 0.36 90 1010.8
20260505122509 13 0 0.0 3.2 0.03 0.86 0.36 90 1010.8
20260505122014 13 89 0.0 3.2 0.03 0.86 0.36 90 1010.7
20260505121543 13 89 0.0 3.2 0.03 0.86 0.30 90 1016.1
20260505121529 13 0 0.0 3.2 0.03 0.86 0.36 90 1010.7
20260505121011 13 0 0.0 3.2 0.03 0.86 0.36 90 1010.7
20260505120511 13 0 0.0 6.4 0.03 0.86 0.36 90 1010.9
20260505120049 13 89 0.0 6.4 0.03 0.86 0.30 91 1015.9
20260505120038 13 0 0.0 6.4 0.03 0.86 0.36 90 1010.4
20260505115513 13 89 3.2 6.4 0.03 0.86 0.36 90 1010.3
20260505115010 13 89 0.0 4.8 0.03 0.86 0.36 90 1010.7
20260505114545 13 89 0.0 4.8 0.03 0.86 0.30 91 1016.0
20260505114528 13 89 1.6 4.8 0.03 0.86 0.36 90 1010.7
20260505114010 13 89 1.6 6.4 0.03 0.86 0.36 91 1010.5
20260505113514 13 89 1.6 6.4 0.03 0.84 0.33 91 1010.4
20260505113039 13 89 1.6 6.4 0.03 0.84 0.28 91 1015.6
20260505113033 13 89 1.6 9.7 0.03 0.84 0.33 91 1010.3
20260505112510 13 89 1.6 9.7 0.03 0.84 0.33 91 1010.6
20260505112011 13 89 1.6 8.0 0.03 0.84 0.33 91 1010.8
20260505111536 13 89 1.6 4.8 0.03 0.84 0.28 91 1016.2
20260505111532 13 89 1.6 4.8 0.03 0.84 0.33 91 1011.0
20260505111014 13 89 1.6 6.4 0.03 0.84 0.33 91 1011.0
20260505110514 13 89 1.6 9.7 0.03 0.84 0.33 91 1011.0
20260505102015 13 90 3.2 12.9 0.03 0.81 0.30 91 1011.0
20260505101539 13 90 4.8 12.9 0.03 0.81 0.25 91 1016.2
20260505101528 13 90 6.4 12.9 0.03 0.81 0.30 91 1011.0
20260505101010 13 90 1.6 11.3 0.03 0.81 0.30 91 1011.4
20260505100516 13 90 3.2 11.3 0.05 0.81 0.30 91 1011.8
20260505100030 13 90 4.8 9.7 0.05 0.81 0.30 91 1012.0
20260505095509 13 90 1.6 14.5 0.05 0.81 0.30 91 1012.1
20260505095013 13 90 3.2 14.5 0.08 0.81 0.30 91 1012.0
20260505094532 13 91 4.8 14.5 0.08 0.81 0.30 91 1011.9
20260505094530 13 90 4.8 14.5 0.08 0.81 0.25 92 1017.0
20260505094011 13 91 6.4 12.9 0.08 0.81 0.30 91 1012.0
20260505093513 13 91 1.6 11.3 0.08 0.81 0.30 91 1011.9
20260505093031 13 91 4.8 17.7 0.08 0.81 0.30 91 1012.0
20260505093026 13 91 4.8 11.3 0.08 0.81 0.25 92 1017.1
20260505092510 13 91 3.2 17.7 0.08 0.81 0.30 91 1012.2
20260505092013 13 93 6.4 19.3 0.08 0.79 0.28 91 1012.2
20260505091531 13 90 6.4 20.9 0.08 0.79 0.28 91 1012.3
20260505091527 13 90 4.8 19.3 0.08 0.79 0.23 92 1017.4
20260505091014 13 89 9.7 20.9 0.05 0.76 0.25 91 1012.1
20260505090508 13 83 9.7 20.9 0.08 0.76 0.25 91 1012.2
20260505090028 14 104 11.3 20.9 0.08 0.76 0.25 91 1012.2
20260505090023 14 105 14.5 20.9 0.08 0.76 0.20 91 1017.2
20260505085510 14 72 3.2 14.5 0.08 0.76 0.25 91 1012.4
20260505085011 14 72 6.4 14.5 0.08 0.74 0.23 91 1012.3
20260505084540 14 71 1.6 14.5 0.10 0.74 0.23 91 1012.7
20260505084533 14 71 1.6 12.9 0.10 0.71 0.18 92 1017.7
20260505084010 14 71 4.8 14.5 0.10 0.74 0.23 91 1012.8
20260505083511 14 71 4.8 12.9 0.13 0.74 0.23 91 1012.9
20260505083030 14 71 4.8 12.9 0.15 0.74 0.23 91 1012.9
20260505083020 14 71 6.4 12.9 0.15 0.71 0.18 91 1017.8
20260505082511 14 67 3.2 9.7 0.15 0.71 0.20 90 1013.0
20260505082008 14 67 3.2 6.4 0.18 0.71 0.20 90 1013.4
20260505081532 14 67 1.6 4.8 0.18 0.71 0.20 90 1013.9
20260505081514 14 67 1.6 4.8 0.18 0.71 0.15 90 1018.8
20260505081012 14 0 0.0 4.8 0.18 0.71 0.20 90 1014.2
20260505080510 14 67 0.0 4.8 0.18 0.69 0.18 90 1014.0
20260505080033 14 67 1.6 6.4 0.18 0.69 0.18 90 1014.1
20260505080020 14 67 1.6 6.4 0.18 0.69 0.13 90 1019.0
20260505075510 14 0 1.6 6.4 0.18 0.69 0.18 90 1014.2
20260505075015 14 0 0.0 3.2 0.18 0.66 0.15 90 1014.5
20260505074532 14 67 0.0 3.2 0.15 0.64 0.13 90 1014.5
20260505074511 14 67 0.0 3.2 0.15 0.64 0.08 90 1019.4
20260505074011 14 0 0.0 3.2 0.18 0.64 0.13 90 1014.5
20260505073512 14 0 0.0 0.0 0.15 0.61 0.10 90 1014.6
20260505073040 14 0 0.0 1.6 0.15 0.58 0.08 89 1014.7
20260505073008 15 67 0.0 1.6 0.15 0.58 0.03 90 1019.5
20260505072511 14 0 0.0 1.6 0.13 0.56 0.05 89 1014.6
20260505072010 14 0 0.0 3.2 0.13 0.53 0.03 89 1014.7
20260505071532 14 0 0.0 3.2 0.13 0.53 0.03 89 1014.4
20260505071505 15 67 0.0 3.2 0.13 0.53 0.53 90 1019.3
20260505071015 14 0 0.0 0.0 0.15 0.53 0.03 89 1014.4
20260505070509 14 0 0.0 0.0 0.13 0.51 0.00 89 1014.5